| time (UTC) | temp C | wind direction | speed KPH | gust KPH | rain 1hr cm | rain 24hr cm | rain mn cm | humidity % | barometer mb |
| 20260507064515 | 18 | 0 | 3.2 | 4.8 | 0.00 | 0.00 | 0.00 | 69 | 1017.1 |
| 20260507063518 | 18 | 304 | 1.6 | 4.8 | 0.00 | 0.00 | 0.00 | 67 | 1017.2 |
| 20260507062517 | 18 | 305 | 0.0 | 3.2 | 0.00 | 0.00 | 0.00 | 68 | 1017.1 |
| 20260507061516 | 17 | 360 | 1.6 | 4.8 | 0.00 | 0.00 | 0.00 | 69 | 1017.1 |
| 20260507060517 | 17 | 0 | 1.6 | 3.2 | 0.00 | 0.00 | 0.00 | 71 | 1017.0 |
| 20260507055517 | 17 | 52 | 0.0 | 4.8 | 0.00 | 0.00 | 0.00 | 73 | 1016.8 |
| 20260507054515 | 16 | 0 | 1.6 | 4.8 | 0.00 | 0.00 | 0.00 | 73 | 1016.8 |
| 20260507053518 | 16 | 0 | 1.6 | 4.8 | 0.00 | 0.00 | 0.00 | 73 | 1016.8 |
| 20260507052518 | 16 | 0 | 3.2 | 8.0 | 0.00 | 0.00 | 0.00 | 73 | 1016.6 |
| 20260507051517 | 16 | 0 | 1.6 | 6.4 | 0.00 | 0.00 | 0.00 | 74 | 1016.5 |
| 20260507050518 | 15 | 0 | 3.2 | 4.8 | 0.00 | 0.00 | 0.00 | 74 | 1016.3 |
| 20260507045517 | 15 | 0 | 3.2 | 4.8 | 0.00 | 0.00 | 0.00 | 73 | 1016.3 |
| 20260507044517 | 15 | 0 | 1.6 | 4.8 | 0.00 | 0.00 | 0.00 | 73 | 1016.2 |
| 20260507043519 | 15 | 0 | 1.6 | 4.8 | 0.00 | 0.00 | 0.00 | 72 | 1016.1 |
| 20260507042517 | 15 | 0.0 | 0.0 | 0.00 | 0.00 | 0.00 | 71 | 1016.2 | |
| 20260507041516 | 14 | 1 | 1.6 | 3.2 | 0.00 | 0.00 | 0.00 | 71 | 1016.1 |
| 20260507040538 | 14 | 1 | 1.6 | 6.4 | 0.00 | 0.00 | 0.00 | 71 | 1016.0 |
| 20260507035517 | 13 | 360 | 3.2 | 9.7 | 0.00 | 0.00 | 0.00 | 70 | 1016.0 |
| 20260507034517 | 14 | 0 | 3.2 | 8.0 | 0.00 | 0.00 | 0.00 | 69 | 1015.9 |
| 20260507033516 | 14 | 2 | 1.6 | 4.8 | 0.00 | 0.00 | 0.00 | 71 | 1015.9 |
| 20260507032518 | 14 | 1 | 1.6 | 4.8 | 0.00 | 0.00 | 0.00 | 73 | 1015.9 |
| 20260507031517 | 13 | 2 | 3.2 | 12.9 | 0.00 | 0.00 | 0.00 | 73 | 1015.9 |
| 20260507030538 | 13 | 0 | 4.8 | 14.5 | 0.00 | 0.00 | 0.00 | 74 | 1015.8 |
| 20260507025516 | 13 | 0 | 6.4 | 12.9 | 0.00 | 0.00 | 0.00 | 73 | 1015.8 |
| 20260507024536 | 13 | 360 | 4.8 | 9.7 | 0.00 | 0.00 | 0.00 | 73 | 1015.8 |
| 20260507023517 | 13 | 0 | 3.2 | 9.7 | 0.00 | 0.00 | 0.00 | 74 | 1015.7 |
| 20260507022517 | 13 | 360 | 6.4 | 12.9 | 0.00 | 0.00 | 0.00 | 73 | 1015.7 |
| 20260507021638 | 13 | 0 | 3.2 | 8.0 | 0.00 | 0.00 | 0.00 | 72 | 1015.6 |
| 20260507020516 | 13 | 1 | 3.2 | 8.0 | 0.00 | 0.00 | 0.00 | 72 | 1015.7 |
| 20260507015518 | 13 | 360 | 6.4 | 12.9 | 0.00 | 0.00 | 0.00 | 71 | 1015.6 |
| 20260507014518 | 14 | 360 | 4.8 | 9.7 | 0.00 | 0.00 | 0.00 | 71 | 1015.3 |
| 20260507013517 | 13 | 360 | 6.4 | 12.9 | 0.00 | 0.00 | 0.00 | 72 | 1015.1 |
| 20260507012516 | 13 | 0 | 9.7 | 16.1 | 0.00 | 0.00 | 0.00 | 70 | 1015.1 |
| 20260507011538 | 15 | 0 | 6.4 | 12.9 | 0.00 | 0.00 | 0.00 | 67 | 1015.0 |
| 20260507010516 | 15 | 0 | 3.2 | 8.0 | 0.00 | 0.00 | 0.00 | 67 | 1015.0 |
| 20260507005516 | 15 | 0 | 3.2 | 9.7 | 0.00 | 0.00 | 0.00 | 67 | 1015.1 |
| 20260507004517 | 15 | 360 | 4.8 | 12.9 | 0.00 | 0.00 | 0.00 | 67 | 1015.0 |
| 20260507003518 | 14 | 0 | 4.8 | 12.9 | 0.00 | 0.00 | 0.00 | 69 | 1015.0 |
| 20260507002518 | 14 | 0 | 4.8 | 14.5 | 0.00 | 0.00 | 0.00 | 69 | 1015.0 |
| 20260507001538 | 14 | 0 | 3.2 | 8.0 | 0.00 | 0.00 | 0.00 | 69 | 1014.9 |
| 20260507000518 | 15 | 0 | 1.6 | 6.4 | 0.00 | 0.00 | 0.00 | 68 | 1015.0 |
| 20260506235558 | 15 | 0 | 3.2 | 8.0 | 0.00 | 0.00 | 0.00 | 68 | 1015.2 |
| 20260506234516 | 15 | 0 | 3.2 | 9.7 | 0.00 | 0.00 | 0.00 | 68 | 1015.3 |
| 20260506233538 | 14 | 360 | 9.7 | 16.1 | 0.00 | 0.00 | 0.00 | 69 | 1015.5 |
| 20260506232518 | 15 | 0 | 8.0 | 16.1 | 0.00 | 0.00 | 0.00 | 68 | 1015.6 |
| 20260506231518 | 15 | 0 | 6.4 | 14.5 | 0.00 | 0.00 | 0.00 | 67 | 1015.6 |
| 20260506230538 | 15 | 360 | 6.4 | 14.5 | 0.00 | 0.00 | 0.00 | 67 | 1015.6 |
| 20260506225516 | 15 | 360 | 6.4 | 9.7 | 0.00 | 0.00 | 0.00 | 66 | 1015.6 |
| 20260506224516 | 15 | 0 | 4.8 | 8.0 | 0.00 | 0.00 | 0.00 | 65 | 1015.6 |
| 20260506223517 | 15 | 357 | 6.4 | 9.7 | 0.00 | 0.00 | 0.00 | 65 | 1015.7 |
| 20260506222518 | 15 | 5 | 4.8 | 12.9 | 0.00 | 0.00 | 0.00 | 67 | 1015.6 |
| 20260506221518 | 15 | 30 | 6.4 | 14.5 | 0.00 | 0.00 | 0.00 | 68 | 1015.6 |
| 20260506220558 | 15 | 166 | 8.0 | 16.1 | 0.00 | 0.00 | 0.00 | 68 | 1015.5 |
| 20260506215536 | 16 | 160 | 4.8 | 11.3 | 0.00 | 0.00 | 0.00 | 66 | 1015.6 |
| 20260506214516 | 16 | 351 | 4.8 | 9.7 | 0.00 | 0.00 | 0.00 | 65 | 1015.7 |
| 20260506213538 | 15 | 69 | 4.8 | 16.1 | 0.00 | 0.00 | 0.00 | 67 | 1015.9 |
| 20260506212518 | 15 | 298 | 9.7 | 16.1 | 0.00 | 0.00 | 0.00 | 68 | 1015.9 |
| 20260506211516 | 15 | 282 | 6.4 | 16.1 | 0.00 | 0.00 | 0.00 | 68 | 1015.7 |
| 20260506210538 | 15 | 305 | 6.4 | 12.9 | 0.00 | 0.00 | 0.00 | 68 | 1015.7 |
| 20260506205517 | 16 | 313 | 6.4 | 9.7 | 0.00 | 0.00 | 0.00 | 67 | 1015.6 |
| 20260506204516 | 16 | 317 | 6.4 | 11.3 | 0.00 | 0.00 | 0.00 | 65 | 1015.5 |
| 20260506203536 | 16 | 310 | 8.0 | 16.1 | 0.00 | 0.00 | 0.00 | 65 | 1015.5 |
| 20260506202515 | 16 | 187 | 8.0 | 12.9 | 0.00 | 0.00 | 0.00 | 66 | 1015.3 |
| 20260506201517 | 16 | 150 | 4.8 | 11.3 | 0.00 | 0.00 | 0.00 | 67 | 1015.3 |
| 20260506200517 | 16 | 258 | 6.4 | 9.7 | 0.00 | 0.00 | 0.00 | 68 | 1015.3 |
| 20260506195557 | 16 | 357 | 6.4 | 12.9 | 0.00 | 0.00 | 0.00 | 69 | 1015.5 |
| 20260506194515 | 16 | 359 | 4.8 | 12.9 | 0.00 | 0.00 | 0.00 | 70 | 1015.5 |
| 20260506193515 | 16 | 162 | 3.2 | 8.0 | 0.00 | 0.00 | 0.00 | 71 | 1015.4 |
| 20260506192537 | 16 | 331 | 4.8 | 8.0 | 0.00 | 0.00 | 0.00 | 73 | 1015.3 |
| 20260506191515 | 16 | 263 | 1.6 | 4.8 | 0.00 | 0.00 | 0.00 | 73 | 1015.2 |
| 20260506190515 | 17 | 297 | 3.2 | 6.4 | 0.00 | 0.00 | 0.00 | 73 | 1015.0 |
| 20260506185515 | 17 | 328 | 4.8 | 6.4 | 0.00 | 0.00 | 0.00 | 73 | 1014.9 |
| 20260506184515 | 17 | 336 | 3.2 | 6.4 | 0.00 | 0.00 | 0.00 | 73 | 1014.8 |
| 20260506183515 | 18 | 315 | 3.2 | 4.8 | 0.00 | 0.00 | 0.00 | 71 | 1014.7 |
| 20260506182516 | 19 | 355 | 3.2 | 6.4 | 0.00 | 0.00 | 0.00 | 69 | 1014.5 |
| 20260506181515 | 20 | 202 | 3.2 | 8.0 | 0.00 | 0.00 | 0.00 | 68 | 1014.2 |
| 20260506180517 | 20 | 6 | 1.6 | 4.8 | 0.00 | 0.00 | 0.00 | 66 | 1014.1 |
| 20260506175517 | 20 | 17 | 0.0 | 3.2 | 0.00 | 0.00 | 0.00 | 66 | 1014.0 |
| 20260506174515 | 20 | 5 | 1.6 | 3.2 | 0.00 | 0.00 | 0.00 | 66 | 1014.0 |
| 20260506173515 | 20 | 11 | 0.0 | 3.2 | 0.00 | 0.00 | 0.00 | 65 | 1013.9 |
| 20260506172517 | 20 | 9 | 0.0 | 4.8 | 0.00 | 0.00 | 0.00 | 64 | 1013.8 |
| 20260506171515 | 21 | 7 | 1.6 | 4.8 | 0.00 | 0.00 | 0.00 | 64 | 1013.7 |
| 20260506170515 | 21 | 15 | 3.2 | 6.4 | 0.00 | 0.00 | 0.00 | 63 | 1013.7 |
| 20260506165515 | 21 | 11 | 3.2 | 9.7 | 0.00 | 0.00 | 0.00 | 62 | 1013.7 |
| 20260506164515 | 22 | 0 | 1.6 | 4.8 | 0.00 | 0.00 | 0.00 | 61 | 1013.7 |
| 20260506163515 | 22 | 0 | 3.2 | 6.4 | 0.00 | 0.00 | 0.00 | 60 | 1013.6 |
| 20260506162517 | 22 | 5 | 3.2 | 8.0 | 0.00 | 0.00 | 0.00 | 59 | 1013.7 |
| 20260506161517 | 23 | 15 | 3.2 | 9.7 | 0.00 | 0.00 | 0.00 | 59 | 1013.7 |
| 20260506160515 | 23 | 345 | 3.2 | 12.9 | 0.00 | 0.00 | 0.00 | 59 | 1013.6 |
| 20260506155515 | 24 | 350 | 4.8 | 9.7 | 0.00 | 0.00 | 0.00 | 56 | 1013.6 |
| 20260506154515 | 25 | 4 | 4.8 | 14.5 | 0.00 | 0.00 | 0.00 | 54 | 1013.6 |
| 20260506153516 | 25 | 348 | 4.8 | 12.9 | 0.00 | 0.00 | 0.00 | 55 | 1013.6 |
| 20260506152517 | 25 | 345 | 4.8 | 16.1 | 0.00 | 0.00 | 0.00 | 51 | 1013.7 |
| 20260506151516 | 25 | 11 | 6.4 | 14.5 | 0.00 | 0.00 | 0.00 | 53 | 1013.7 |
| 20260506150516 | 24 | 322 | 3.2 | 11.3 | 0.00 | 0.00 | 0.00 | 56 | 1013.7 |
| 20260506145515 | 23 | 296 | 6.4 | 11.3 | 0.00 | 0.00 | 0.00 | 56 | 1013.7 |
| 20260506144517 | 24 | 296 | 4.8 | 8.0 | 0.00 | 0.00 | 0.00 | 55 | 1013.7 |
| 20260506143517 | 24 | 324 | 1.6 | 9.7 | 0.00 | 0.00 | 0.00 | 52 | 1013.8 |
| 20260506142515 | 25 | 341 | 6.4 | 14.5 | 0.00 | 0.00 | 0.00 | 48 | 1013.8 |
| 20260506141618 | 25 | 353 | 4.8 | 12.9 | 0.00 | 0.00 | 0.00 | 48 | 1013.8 |
| 20260506140515 | 25 | 359 | 6.4 | 24.1 | 0.00 | 0.00 | 0.00 | 45 | 1013.6 |
| 20260506135515 | 25 | 6 | 9.7 | 20.9 | 0.00 | 0.00 | 0.00 | 44 | 1013.6 |
| 20260506134516 | 25 | 17 | 9.7 | 20.9 | 0.00 | 0.00 | 0.00 | 42 | 1013.8 |
| 20260506133515 | 25 | 2 | 6.4 | 16.1 | 0.00 | 0.00 | 0.00 | 46 | 1013.8 |
| 20260506132515 | 24 | 10 | 9.7 | 19.3 | 0.00 | 0.00 | 0.00 | 47 | 1014.0 |
| 20260506131515 | 23 | 2 | 4.8 | 14.5 | 0.00 | 0.00 | 0.00 | 47 | 1014.1 |
| 20260506130515 | 24 | 358 | 8.0 | 16.1 | 0.00 | 0.00 | 0.00 | 45 | 1014.1 |
| 20260506125515 | 23 | 6 | 6.4 | 19.3 | 0.00 | 0.00 | 0.00 | 44 | 1014.1 |
| 20260506124515 | 23 | 17 | 8.0 | 16.1 | 0.00 | 0.00 | 0.00 | 45 | 1014.1 |
| 20260506123535 | 23 | 39 | 8.0 | 17.7 | 0.00 | 0.00 | 0.00 | 43 | 1014.3 |
| 20260506122515 | 24 | 16 | 8.0 | 20.9 | 0.00 | 0.00 | 0.00 | 43 | 1014.4 |
| 20260506121515 | 24 | 14 | 8.0 | 20.9 | 0.00 | 0.00 | 0.00 | 42 | 1014.5 |
| 20260506120615 | 24 | 13 | 11.3 | 20.9 | 0.00 | 0.00 | 0.00 | 41 | 1014.6 |
| 20260506115536 | 23 | 3 | 9.7 | 22.5 | 0.00 | 0.00 | 0.00 | 43 | 1014.6 |
| 20260506114516 | 23 | 16 | 8.0 | 19.3 | 0.00 | 0.00 | 0.00 | 46 | 1014.7 |
| 20260506113515 | 23 | 48 | 6.4 | 17.7 | 0.00 | 0.00 | 0.00 | 44 | 1014.8 |
| 20260506112517 | 23 | 27 | 8.0 | 16.1 | 0.00 | 0.00 | 0.00 | 44 | 1014.9 |
| 20260506111515 | 24 | 0 | 8.0 | 16.1 | 0.00 | 0.00 | 0.00 | 41 | 1015.0 |
| 20260506110535 | 23 | 35 | 9.7 | 16.1 | 0.00 | 0.00 | 0.00 | 44 | 1015.0 |
| 20260506105515 | 23 | 20 | 6.4 | 20.9 | 0.00 | 0.00 | 0.00 | 44 | 1015.3 |
| 20260506104516 | 23 | 31 | 9.7 | 20.9 | 0.00 | 0.00 | 0.00 | 44 | 1015.3 |
| 20260506103515 | 23 | 22 | 8.0 | 16.1 | 0.00 | 0.00 | 0.00 | 45 | 1015.3 |
| 20260506102515 | 23 | 38 | 8.0 | 16.1 | 0.00 | 0.00 | 0.00 | 47 | 1015.3 |
| 20260506101515 | 23 | 47 | 11.3 | 17.7 | 0.00 | 0.00 | 0.00 | 48 | 1015.4 |
| 20260506100515 | 22 | 38 | 9.7 | 17.7 | 0.00 | 0.00 | 0.00 | 49 | 1015.4 |
| 20260506095516 | 23 | 23 | 8.0 | 16.1 | 0.00 | 0.00 | 0.00 | 48 | 1015.6 |
| 20260506094515 | 23 | 27 | 8.0 | 16.1 | 0.00 | 0.00 | 0.00 | 47 | 1015.7 |
| 20260506093515 | 23 | 29 | 4.8 | 14.5 | 0.00 | 0.00 | 0.00 | 45 | 1015.7 |
| 20260506092538 | 23 | 30 | 8.0 | 16.1 | 0.00 | 0.00 | 0.00 | 47 | 1015.7 |
| 20260506091515 | 22 | 45 | 6.4 | 16.1 | 0.00 | 0.00 | 0.00 | 44 | 1015.8 |
| 20260506090535 | 22 | 41 | 6.4 | 12.9 | 0.00 | 0.00 | 0.00 | 43 | 1015.8 |
| 20260506085517 | 22 | 0 | 8.0 | 14.5 | 0.00 | 0.00 | 0.00 | 46 | 1015.9 |
| 20260506084517 | 22 | 54 | 6.4 | 11.3 | 0.00 | 0.00 | 0.00 | 49 | 1015.9 |
| 20260506083515 | 21 | 23 | 4.8 | 14.5 | 0.00 | 0.00 | 0.00 | 52 | 1015.9 |
| 20260506082538 | 22 | 8 | 8.0 | 14.5 | 0.00 | 0.00 | 0.00 | 53 | 1015.9 |
| 20260506081515 | 21 | 22 | 4.8 | 12.9 | 0.00 | 0.00 | 0.00 | 52 | 1015.9 |
| 20260506080516 | 21 | 27 | 4.8 | 11.3 | 0.00 | 0.00 | 0.00 | 54 | 1015.8 |
| 20260506073516 | 20 | 29 | 4.8 | 9.7 | 0.00 | 0.00 | 0.00 | 60 | 1015.8 |
| 20260506072517 | 20 | 31 | 3.2 | 8.0 | 0.00 | 0.00 | 0.00 | 62 | 1015.9 |
| 20260506071515 | 20 | 11 | 3.2 | 8.0 | 0.00 | 0.00 | 0.00 | 63 | 1015.9 |
| 20260506070516 | 20 | 0 | 4.8 | 9.7 | 0.00 | 0.00 | 0.00 | 64 | 1015.8 |